[[{"header":{"parameterUnit":"m.s-1","parameterCategory":1,"la1":30.2991,"la2":30.254,"lo1":-89.0895,"lo2":-89.0444,"dy":0.0017,"dx":0.0017,"nx":28,"ny":28,"refTime":"2026-02-05T03:00:00:Z","depth":0,"parameterNumber":2,"parameterNumberName":"U-component_of_WINDS"},"data":[0,0,0,0,0,0,0,0,0,0,0,0,0,0,0,0,0,0,0,0,0,0,0,0,0,0,0,0,0,0,0,0,0,0,0,0,0,0,0,0,0,0,0,0,0,0,0,0,0,0,0,0,0,0,0,0,0,0,3.2058,3.2058,0,3.2092,3.2093,3.2093,3.2042,3.204,3.2039,3.2037,3.2074,3.2076,3.2079,0,0,0,0,0,0,0,0,0,0,0,0,0,3.1949,3.1951,3.2058,3.2058,3.2058,3.2092,3.2093,3.2093,3.2043,3.204,3.2038,3.2036,3.2073,3.2076,3.2079,0,0,0,0,0,0,0,0,0,0,0,0,0,3.1991,3.1952,3.2057,3.2037,3.2036,3.2092,3.2093,3.2094,3.2043,3.204,3.2038,3.2035,3.2072,3.2076,3.2079,3.2158,0,0,3.2092,3.2093,0,0,0,0,0,0,0,0,3.1989,3.1995,3.204,3.2039,3.2037,3.206,3.2068,3.2115,3.2044,3.204,3.2037,3.2034,3.2071,3.2075,3.2088,3.216,3.2161,3.2092,3.2094,3.2096,3.2097,0,0,0,0,0,0,0,3.1986,3.1994,3.2071,3.204,3.2039,3.2027,3.203,3.2077,3.2071,3.204,3.2037,3.2042,3.207,3.2084,3.2088,3.2162,3.2092,3.2095,3.2098,3.2099,3.2302,3.2305,0,0,0,0,0,0,3.1985,3.1991,3.207,3.2072,3.2006,3.2031,3.2035,3.2056,3.207,3.2069,3.2044,3.2039,3.2079,3.2084,3.2089,3.2184,3.2096,3.21,3.2102,3.2299,3.2303,3.2306,0,0,0,0,0,0,3.1983,3.1993,3.2069,3.2031,3.204,3.2036,3.206,3.2058,3.2071,3.2072,3.2071,3.2059,3.2077,3.2084,3.2142,3.2184,3.2102,3.2105,3.2296,3.2301,3.2305,3.2372,0,0,0,0,0,0,3.198,3.1992,3.2022,3.2032,3.2042,3.212,3.2062,3.206,3.2078,3.2072,3.2086,3.2086,3.2075,3.2136,3.2146,3.2188,3.2108,3.2292,3.2298,3.2303,3.2366,3.2378,3.2389,0,0,0,0,0,3.1977,3.2039,3.2023,3.2033,3.2078,3.2123,3.2128,3.2114,3.2082,3.2112,3.2113,3.2086,3.2178,3.2142,3.2153,3.2197,3.2289,3.2296,3.2303,3.2361,3.2376,3.2388,0,0,0,0,0,0,3.2033,3.204,3.2023,3.209,3.2106,3.2114,3.2151,3.213,3.2156,3.2149,3.2131,3.2135,3.2197,3.2203,3.2163,3.2275,3.2228,3.2238,3.2269,3.2283,3.2294,3.2292,3.2112,0,0,0,0,0,3.2053,3.2088,3.2092,3.2151,3.2161,3.2155,3.2173,3.2161,3.2177,3.2184,3.2189,3.2207,3.224,3.2262,3.2292,3.2367,3.237,3.2402,3.2414,3.2423,3.2431,3.2473,3.2488,3.2329,3.2328,3.2328,0,0,3.2095,3.2103,3.2127,3.2163,3.2174,3.2212,3.2161,3.2202,3.223,3.219,3.2246,3.2251,3.2269,3.2336,3.2366,3.2343,3.2476,3.2432,3.2439,3.2442,3.2482,3.2497,3.2511,3.2333,3.2332,3.2332,0,0,3.2192,3.2201,3.2252,3.2264,3.2282,3.2278,3.2291,3.2302,3.2304,3.2359,3.2331,3.2364,3.2421,3.2436,3.2451,3.2556,3.2532,3.2566,3.2625,3.2667,3.2679,3.269,3.2729,3.2743,3.2574,3.2574,3.2574,0,3.2242,3.2297,3.228,3.2325,3.2342,3.2309,3.2361,3.2374,3.2401,3.2415,3.2388,3.246,3.247,3.2541,3.2567,3.258,3.2594,3.2564,3.2679,3.269,3.27,3.2737,3.2751,3.2578,3.2578,3.2577,3.2577,0,3.2358,3.2397,3.2436,3.2464,3.2486,3.2534,3.2526,3.2551,3.2537,3.2536,3.2594,3.2605,3.2638,3.2654,3.2641,3.2724,3.271,3.2681,3.2634,3.2719,3.2754,3.2768,3.2584,3.2583,3.2581,3.258,0,0,3.249,3.2509,3.2524,3.2537,3.2555,3.2585,3.2633,3.2665,3.2687,3.2707,3.2748,3.2798,3.2772,3.2789,3.2778,3.2814,3.2898,3.2781,3.2782,3.2804,3.2993,3.3015,3.3031,3.2883,3.2886,3.2888,3.2992,0,3.2587,3.2668,3.2656,3.2735,3.2772,3.2741,3.2783,3.2799,3.2801,3.2833,3.2834,3.287,3.2833,3.2844,3.2878,3.2881,3.2936,3.2873,3.2922,3.2924,3.2919,3.3049,3.3072,3.3169,3.3005,3.3007,3.3009,0,3.271,3.2736,3.2819,3.2833,3.2848,3.2886,3.2916,3.2946,3.2965,3.2963,3.2984,3.2967,3.3015,3.2968,3.3036,3.2993,3.3013,3.3017,3.3021,3.3025,3.2972,3.3058,3.32,3.3215,3.303,3.3028,3.3027,0,3.2799,3.2855,3.2912,3.2924,3.2942,3.2969,3.2978,3.2994,3.3015,3.3041,3.3055,3.3087,3.3105,3.313,3.3123,3.3088,3.3193,3.3144,3.3195,3.3195,3.3218,3.3217,3.3366,3.3229,3.3229,3.3229,3.3229,0,3.2909,3.2961,3.2952,3.2988,3.3046,3.3032,3.3091,3.3096,3.3111,3.3148,3.3123,3.3158,3.3146,3.3181,3.3175,3.3234,3.3242,3.3243,3.3241,3.3245,3.3245,3.3258,3.3251,3.3233,3.3232,3.3231,3.3231,0,3.3018,3.3014,3.3075,3.3088,3.3092,3.3135,3.3146,3.318,3.318,3.3227,3.3237,3.3237,3.3277,3.3272,3.3317,3.3313,3.3386,3.3376,3.338,3.3378,3.3429,3.3425,3.3592,3.3614,3.3462,3.3464,3.3465,0,3.3089,3.3129,3.3146,3.3169,3.318,3.3217,3.3239,3.3227,3.3251,3.3277,3.3308,3.3346,3.3376,3.3442,3.3446,3.3481,3.3472,3.3528,3.3477,3.3481,3.3474,3.3472,3.3477,3.3538,3.354,3.3541,3.3543,0,3.3215,3.3212,3.3244,3.3276,3.3303,3.3327,3.3349,3.337,3.3361,3.3389,3.343,3.3453,3.3499,3.3538,3.3571,3.3581,3.3562,3.3559,3.3573,3.3578,3.3579,3.3581,3.3409,3.3555,3.3554,3.3553,3.3552,3.3552,3.3308,3.3343,3.3361,3.3398,3.3414,3.3436,3.3469,3.3473,3.3507,3.3544,3.3535,3.3582,3.3602,3.3645,3.3659,3.3696,3.3675,3.3695,3.37,3.3705,3.3712,3.3573,3.3702,3.3701,3.3701,3.3701,3.37,0,3.3434,3.3445,3.3479,3.3512,3.3542,3.352,3.3544,3.3571,3.3612,3.3632,3.3662,3.3711,3.3748,3.3757,3.3794,3.3822,3.3814,3.3832,3.383,3.3833,3.3727,3.3712,3.3838,3.3838,3.3838,3.3838,3.3838,3.3838,3.3504,3.3562,3.3561,3.3627,3.3637,3.3683,3.3699,3.372,3.3736,3.3791,3.3822,3.3827,3.3844,3.3882,3.3916,3.3918,3.3933,3.3955,3.3954,3.3854,3.3841,3.3827,3.3813,3.3959,3.3959,3.4057,3.4058,3.4059]},{"header":{"parameterUnit":"m.s-1","parameterCategory":1,"la1":30.2991,"la2":30.254,"lo1":-89.0895,"lo2":-89.0444,"dy":0.0017,"dx":0.0017,"nx":28,"ny":28,"refTime":"2026-02-05T03:00:00:Z","depth":0,"parameterNumber":3,"parameterNumberName":"V-component_of_WINDS"},"data":[0,0,0,0,0,0,0,0,0,0,0,0,0,0,0,0,0,0,0,0,0,0,0,0,0,0,0,0,0,0,0,0,0,0,0,0,0,0,0,0,0,0,0,0,0,0,0,0,0,0,0,0,0,0,0,0,0,0,-0.448,-0.448,0,-0.4467,-0.4467,-0.4466,-0.4476,-0.4477,-0.4477,-0.4478,-0.4463,-0.4462,-0.4461,0,0,0,0,0,0,0,0,0,0,0,0,0,-0.4513,-0.4512,-0.448,-0.448,-0.448,-0.4467,-0.4467,-0.4466,-0.4476,-0.4477,-0.4477,-0.4478,-0.4463,-0.4462,-0.4461,0,0,0,0,0,0,0,0,0,0,0,0,0,-0.4499,-0.4512,-0.448,-0.4483,-0.4483,-0.4467,-0.4467,-0.4466,-0.4476,-0.4477,-0.4477,-0.4478,-0.4463,-0.4462,-0.4461,-0.444,0,0,-0.4457,-0.4457,0,0,0,0,0,0,0,0,-0.45,-0.4498,-0.4483,-0.4483,-0.4483,-0.4474,-0.4473,-0.4458,-0.4476,-0.4479,-0.4478,-0.4478,-0.4466,-0.4464,-0.446,-0.444,-0.4439,-0.4457,-0.4456,-0.4456,-0.4455,0,0,0,0,0,0,0,-0.4501,-0.4498,-0.4475,-0.4482,-0.4483,-0.4485,-0.4483,-0.447,-0.4469,-0.4478,-0.4479,-0.4478,-0.4466,-0.4461,-0.446,-0.4439,-0.4457,-0.4456,-0.4455,-0.4455,-0.4401,-0.4401,0,0,0,0,0,0,-0.4501,-0.4499,-0.4475,-0.4474,-0.4493,-0.4484,-0.4482,-0.4476,-0.4469,-0.4468,-0.4477,-0.4478,-0.4463,-0.4461,-0.446,-0.4435,-0.4456,-0.4455,-0.4454,-0.4402,-0.4401,-0.44,0,0,0,0,0,0,-0.4502,-0.4499,-0.4476,-0.4487,-0.4484,-0.4482,-0.4475,-0.4475,-0.4471,-0.4468,-0.4467,-0.4473,-0.4464,-0.4461,-0.4445,-0.4435,-0.4454,-0.4453,-0.4403,-0.4402,-0.4401,-0.4387,0,0,0,0,0,0,-0.4503,-0.4499,-0.4492,-0.4487,-0.4483,-0.4462,-0.4475,-0.4475,-0.4469,-0.447,-0.4464,-0.4463,-0.4464,-0.4447,-0.4444,-0.4434,-0.4452,-0.4404,-0.4402,-0.4401,-0.4388,-0.4385,-0.4383,0,0,0,0,0,-0.4504,-0.4488,-0.4491,-0.4488,-0.4474,-0.4461,-0.4459,-0.4461,-0.4468,-0.446,-0.4459,-0.4463,-0.4437,-0.4445,-0.4442,-0.4431,-0.4404,-0.4403,-0.4401,-0.4389,-0.4386,-0.4383,0,0,0,0,0,0,-0.4491,-0.4487,-0.4491,-0.4473,-0.4467,-0.4463,-0.4453,-0.4457,-0.4449,-0.445,-0.4452,-0.4451,-0.4434,-0.4431,-0.4441,-0.4411,-0.4422,-0.4419,-0.4414,-0.4411,-0.4408,-0.4409,-0.4451,0,0,0,0,0,-0.4486,-0.4476,-0.4473,-0.4458,-0.4455,-0.4454,-0.4449,-0.4451,-0.4445,-0.4442,-0.4439,-0.4433,-0.4424,-0.4417,-0.4408,-0.4388,-0.4387,-0.4379,-0.4377,-0.4375,-0.4372,-0.4362,-0.4359,-0.4395,-0.4395,-0.4395,0,0,-0.4475,-0.4472,-0.4466,-0.4455,-0.4451,-0.4441,-0.4452,-0.4441,-0.4433,-0.4441,-0.4425,-0.4423,-0.4416,-0.4399,-0.439,-0.4395,-0.4362,-0.4373,-0.4371,-0.437,-0.436,-0.4357,-0.4354,-0.4394,-0.4394,-0.4394,0,0,-0.4451,-0.4448,-0.4434,-0.443,-0.4425,-0.4425,-0.4421,-0.4417,-0.4415,-0.44,-0.4406,-0.4397,-0.438,-0.4375,-0.4371,-0.4346,-0.435,-0.4343,-0.4329,-0.4319,-0.4317,-0.4314,-0.4305,-0.4302,-0.4341,-0.4341,-0.4341,0,-0.4438,-0.4424,-0.4427,-0.4415,-0.441,-0.4417,-0.4404,-0.44,-0.4391,-0.4387,-0.4393,-0.4373,-0.4369,-0.435,-0.4344,-0.434,-0.4337,-0.4343,-0.4317,-0.4314,-0.4312,-0.4304,-0.43,-0.434,-0.434,-0.434,-0.434,0,-0.4409,-0.4398,-0.4388,-0.438,-0.4374,-0.4362,-0.4363,-0.4356,-0.4359,-0.4358,-0.4343,-0.4339,-0.4329,-0.4325,-0.4327,-0.4307,-0.4311,-0.4317,-0.4327,-0.4308,-0.43,-0.4297,-0.4339,-0.4339,-0.4339,-0.4339,0,0,-0.4374,-0.437,-0.4366,-0.4363,-0.4357,-0.4349,-0.4337,-0.4328,-0.4323,-0.4317,-0.4307,-0.4293,-0.4299,-0.4294,-0.4296,-0.4287,-0.4268,-0.4294,-0.4294,-0.4289,-0.4246,-0.4241,-0.4237,-0.4271,-0.427,-0.427,-0.4246,0,-0.435,-0.4329,-0.4332,-0.4313,-0.4303,-0.431,-0.43,-0.4296,-0.4295,-0.4287,-0.4286,-0.4276,-0.4285,-0.4282,-0.4273,-0.4272,-0.4259,-0.4274,-0.4261,-0.4261,-0.4263,-0.4233,-0.4228,-0.4206,-0.4243,-0.4243,-0.4242,0,-0.4318,-0.4312,-0.4291,-0.4288,-0.4285,-0.4275,-0.4268,-0.426,-0.4255,-0.4255,-0.425,-0.4254,-0.4242,-0.4253,-0.4236,-0.4246,-0.4242,-0.424,-0.4239,-0.4238,-0.425,-0.4231,-0.4199,-0.4196,-0.4238,-0.4238,-0.4238,0,-0.4296,-0.4282,-0.4268,-0.4265,-0.4261,-0.4255,-0.4252,-0.4248,-0.4243,-0.4237,-0.4234,-0.4226,-0.4221,-0.4215,-0.4216,-0.4224,-0.42,-0.4211,-0.4199,-0.4199,-0.4194,-0.4194,-0.416,-0.4191,-0.4191,-0.4191,-0.4191,0,-0.4268,-0.4255,-0.4258,-0.425,-0.4236,-0.4239,-0.4225,-0.4224,-0.422,-0.4212,-0.4217,-0.4209,-0.4212,-0.4203,-0.4204,-0.4191,-0.4189,-0.4188,-0.4189,-0.4188,-0.4188,-0.4185,-0.4186,-0.419,-0.419,-0.419,-0.419,0,-0.424,-0.4241,-0.4227,-0.4225,-0.4224,-0.4214,-0.4212,-0.4204,-0.4204,-0.4193,-0.419,-0.4191,-0.4181,-0.4182,-0.4172,-0.4173,-0.4156,-0.4158,-0.4158,-0.4158,-0.4147,-0.4148,-0.411,-0.4105,-0.4139,-0.4138,-0.4138,0,-0.4222,-0.4212,-0.4209,-0.4204,-0.4202,-0.4194,-0.4189,-0.4192,-0.4187,-0.4181,-0.4174,-0.4165,-0.4159,-0.4143,-0.4142,-0.4135,-0.4137,-0.4124,-0.4135,-0.4135,-0.4137,-0.4137,-0.4136,-0.4121,-0.4121,-0.4121,-0.4121,0,-0.419,-0.4191,-0.4184,-0.4178,-0.4172,-0.4167,-0.4162,-0.4158,-0.4161,-0.4154,-0.4145,-0.414,-0.413,-0.4121,-0.4114,-0.4112,-0.4117,-0.4117,-0.4114,-0.4113,-0.4113,-0.4113,-0.4151,-0.4118,-0.4118,-0.4118,-0.4118,-0.4119,-0.4166,-0.4158,-0.4155,-0.4148,-0.4145,-0.4141,-0.4133,-0.4133,-0.4126,-0.4118,-0.412,-0.411,-0.4106,-0.4097,-0.4094,-0.4087,-0.4091,-0.4087,-0.4086,-0.4085,-0.4083,-0.4115,-0.4085,-0.4085,-0.4085,-0.4085,-0.4086,0,-0.4135,-0.4133,-0.4126,-0.412,-0.4114,-0.412,-0.4115,-0.411,-0.4101,-0.4097,-0.4091,-0.4081,-0.4073,-0.4072,-0.4064,-0.4058,-0.406,-0.4056,-0.4057,-0.4056,-0.4079,-0.4083,-0.4055,-0.4055,-0.4055,-0.4055,-0.4055,-0.4055,-0.4117,-0.4105,-0.4106,-0.4092,-0.4091,-0.4081,-0.4078,-0.4075,-0.4072,-0.4061,-0.4054,-0.4054,-0.4051,-0.4044,-0.4037,-0.4037,-0.4034,-0.4029,-0.403,-0.4051,-0.4054,-0.4057,-0.4061,-0.4028,-0.4028,-0.4007,-0.4007,-0.4006]}]]